User: anonymous   Login
Location: Larrial
(48.2758°N, 4.5331°W)
Time: 22:54:36
(UTC+00:00)
Language:

AAUSAT CUBESAT 2 - Orbit

View from above orbital plane
View from above orbital plane
View from above satellite
View from above satellite

Ground track
Ground track

The orbit data is extracted from the following two-line orbital elements,

1 32788U 08021F   21335.53218319  .00001834  00000-0  16829-3 0  9990
2 32788  97.5180 323.3331 0013281  71.0345 289.2315 14.95986009738833
Epoch (UTC): 01 December 2021 12:46:20
Eccentricity: 0.0013281
inclination: 97.5180°
perigee height: 570 km
apogee height: 588 km
right ascension of ascending node: 323.3331°
argument of perigee: 71.0345°
revolutions per day: 14.95986009
mean anomaly at epoch: 289.2315°
orbit number at epoch: 73883

The dashed part of the orbit path shows where the satellite is in the earth's shadow,  

DLR